CW0630 Weather Reports


Display with metric or nautical units.
time (UTC)temp
F
wind
direction
speed
MPH
gust
MPH
rain 1hr
in
rain 24hr
in
rain mn
in
humidity
%
barometer
mb
20240220211012 50 51 4.0 4.0 0.00 0.00 0.00 50 1027.2
20240220201024 51 82 6.0 6.0 0.00 0.00 0.00 48 1027.2
20240220191039 51 184 2.0 2.0 0.00 0.00 0.00 48 1027.7
20240220181017 50 127 3.0 4.0 0.00 0.00 0.00 46 1028.7
20240220171020 50 169 4.0 4.0 0.00 0.00 0.00 50 1029.8
20240220161032 48 88 3.0 3.0 0.00 0.00 0.00 52 1029.9
20240220151038 45 134 5.0 9.0 0.00 0.00 0.00 57 1030.0
20240220141033 41 68 3.0 3.0 0.00 0.00 0.00 69 1030.1
20240220131032 30 93 0.0 0.0 0.00 0.00 0.00 89 1029.3
20240220121041 24 93 0.0 0.0 0.00 0.00 0.00 90 1027.8
20240220111023 25 93 0.0 0.0 0.00 0.00 0.00 89 1027.2
20240220101053 26 94 1.0 1.0 0.00 0.00 0.00 89 1026.3
20240220091038 27 98 0.0 0.0 0.00 0.00 0.00 88 1025.6
20240220081039 27 98 0.0 0.0 0.00 0.00 0.00 87 1025.6
20240220071035 28 98 0.0 0.0 0.00 0.00 0.00 85 1025.5
20240220061025 30 98 0.0 0.0 0.00 0.00 0.00 82 1025.3
20240220051030 31 98 0.0 0.0 0.00 0.00 0.00 77 1024.9
20240220041050 33 99 2.0 2.0 0.00 0.00 0.00 72 1025.0
20240220031023 37 97 3.0 3.0 0.00 0.00 0.00 65 1025.0
20240220021027 39 99 3.0 7.0 0.00 0.00 0.00 62 1024.5
20240220011029 41 102 3.0 3.0 0.00 0.00 0.00 50 1023.5
20240220001026 40 40 1.0 2.0 0.00 0.00 0.00 51 1022.7
20240219231037 44 26 1.0 1.0 0.00 0.00 0.00 42 1022.0
20240219221051 48 349 0.0 0.0 0.00 0.00 0.00 35 1021.2